Regional Weather Roundup
Issued by NWS Wakefield, VA

Home | Current Version | Previous Version | Graphics & Text | Print | Product List | Glossary On
Versions: 1 2 3 4 5 6 7 8 9 10 11 12 13 14 15 16 17 18 19 20 21 22 23 24 25 26 27 28 29 30 31 32 33 34 35 36 37 38 39 40 41 42 43 44 45 46 47 48 49 50
932
ASUS41 KAKQ 211215
RWRAKQ

REGIONAL WEATHER ROUNDUP
NATIONAL WEATHER SERVICE WAKEFIELD VA
700 AM EST SAT JAN 21 2017

Note: "fair" indicates few or no clouds below 12,000 feet with no
significant weather and/or obstructions to visibility. * = Denotes
station may not report precipitation (e.g., rain,snow,etc.),
thunder or fog.

VAZ042-051-052>054-056-211300-
NORTHERN VIRGINIA

CITY           SKY/WX    TMP DP  RH WIND       PRES   REMARKS
WASH NATIONAL  DRIZZLE   48  48 100 S3        29.92S FOG
DULLES         FOG       46  45  96 S5        29.91R VSB 1/8
FORT BELVOIR   CLOUDY    46  46 100 CALM      29.91S FOG
QUANTICO       FOG       46  46 100 SW3       29.92S VSB 1/2
FREDERICKSBRG* CLOUDY    48  48 100 CALM      29.90F FOG
STAFFORD*      CLOUDY    47  47 100 CALM      29.95S FOG
WARRENTON      CLOUDY    48  46  91 CALM      29.90S FOG
CULPEPER*      CLOUDY    48  48 100 CALM      29.92R FOG
MANASSAS*      FOG      N/A N/A N/A CALM      29.91  VSB 1
LEESBURG*      CLOUDY    48  48 100 S5        29.91S FOG
WINCHESTER     FOG       39  39 100 SW3       29.89R VSB 1/2
FRONT ROYAL*   CLOUDY    39  39 100 CALM      29.89R VSB 1/4
LURAY*         FOG       43  43 100 CALM      29.89S VSB 1/4
$$

VAZ048-049-060>072-079>083-211300-
CENTRAL AND SOUTH CENTRAL VIRGINIA

CITY           SKY/WX    TMP DP  RH WIND       PRES   REMARKS
RICHMOND       FOG       47  47 100 S5        29.92R VSB 1/2
CHESTERFIELD*  CLOUDY    46  32  57 S6        29.92F
PETERSBURG*    LGT RAIN  46  45  93 CALM      29.93S VSB 1
HANOVER        FOG       47  46  97 S6        29.93R VSB 1/2
TAPPAHANNOCK*  FOG       47  47 100 SE3       29.93R VSB 1/2
QUINTON*       FOG       46  46 100 CALM      29.91S VSB 3/4
CHARLOTTSVILLE FOG       48  47  96 SW3       29.89S VSB 1/2
GORDONSVILLE*  FOG       47  47 100 SW3       29.90R VSB 1
ORANGE*        FOG       46  46 100 CALM      29.92S VSB 3/4
LOUISA*        FOG       50  50 100 CALM      29.89S VSB 1/2
BUMPASS*       CLOUDY    47  47 100 SW3       29.90S
FARMVILLE*     FOG       48  48 100 CALM      29.90S VSB 1/2
CREWE*         CLOUDY    47  47 100 S3        29.90F VSB 1/2
FORT PICKETT*  CLOUDY    46  43  88 CALM      29.91F VSB 1/2
CHASE CITY*    CLOUDY    48  47  95 CALM      29.92S VSB 1/2
CLARKSVILLE*   CLOUDY    48  48 100 CALM      29.92S VSB 1/2
SOUTH HILL*    CLOUDY    47  47 100 S3        29.98S VSB 1/2
LAWRENCEVILLE* CLOUDY    47  46  97 CALM      29.92S VSB 1/2
EMPORIA*       FOG       46  46 100 NE6       29.94F VSB 3/4
$$

VAZ088>098-211300-
SOUTHEAST VIRGINIA

CITY           SKY/WX    TMP DP  RH WIND       PRES   REMARKS
NORFOLK        CLOUDY    47  46  97 S3        29.94R FOG
VIRGINIA BEACH CLOUDY    47  46  97 CALM      29.94R FOG
NORFOLK NAVAL  CLOUDY    48  46  93 S3        29.95R FOG
WEST POINT*    CLOUDY    46  46  99 S6        29.94S
SALUDA*        CLOUDY    46  46 100 S3        29.92S
NEWPORT NEWS   FOG       47  47 100 S3        29.93S VSB 3/4
LANGLEY AFB    CLOUDY    46  46 100 S5        29.93S FOG
FORT EUSTIS    CLOUDY    47  45  93 S6        29.91R FOG
WILLIAMSBURG*  CLOUDY    48  48 100 S5          N/A
HR EXEC AP*    CLOUDY    48  45  87 SE3       29.93R
FRANKLIN*      FOG       46  46  97 CALM      29.94S VSB 3/4
US460-WAKEFLD  FOG       46  46 100 S5        29.93S VSB 3/4
$$

VAZ020-022-025-037-045-211300-
WEST CENTRAL AND SOUTHWEST VIRGINIA

CITY           SKY/WX    TMP DP  RH WIND       PRES   REMARKS
STAUNTON*      FOG       44  44 100 CALM      29.91R VSB 1/4
WAYNESBORO*    FAIR      39  38  96 CALM      29.89R
HOT SPRINGS VA PTCLDY    48  46  93 SW8       29.88S
LYNCHBURG      FOG       47  47 100 CALM      29.91S VSB 1/2
DANVILLE       FOG       50  50 100 CALM      29.91S VSB 3/4
SOUTH BOSTON*  CLOUDY    50  48  95 CALM      29.92R VSB 1/2
MARTINSVILLE   CLOUDY    48  48  98 CALM      29.92F FOG
ROANOKE        FOG       45  45 100 N3        29.93R VSB 1/4
BLACKSBURG     FOG       38  38 100 CALM      29.92S VSB 3/4
DUBLIN*        FOG       43  43 100 CALM      29.91S VSB<1/4
MARION*        FOG       41  40  96 CALM      29.91S VSB 1/4
HILLSVILLE*    FOG       43  43 100 CALM      29.89S VSB 1/2
RICHLANDS*     FAIR     N/A N/A N/A S3        29.87R
WISE*          CLOUDY    54  46  76 S3        29.88R
ABINGDON*      MOCLDY    49  49  99 E5        29.87R
$$

MDZ021>025-VAZ099-100-211300-
SOUTHERN MARYLAND AND THE DELMARVA PENINSULA

CITY           SKY/WX    TMP DP  RH WIND       PRES   REMARKS
PATUXENT RIVER FOG       46  46 100 SE3       29.92S VSB 1
BAY BRIDGE APT CLOUDY    45  45 100 CALM      29.92S FOG
LEONARDTOWN    CLOUDY    45  45 100 CALM      29.93F VSB 1/2
DOVER          CLOUDY    45  45 100 S3        29.90F FOG
GEORGETOWN     CLOUDY    46  45  96 CALM      29.92S FOG
EASTON         NOT AVBL
CAMBRIDGE      CLOUDY    45  45 100 CALM      29.92S
SALISBURY      CLOUDY    46  46 100 S5        29.92S FOG
OCEAN CITY     CLOUDY    46  46 100 CALM      29.92F FOG
WALLOPS ISLAND CLOUDY    47  47 100 CALM      29.94R FOG
ACCOMACK*      CLOUDY    47  46  98 SE3       29.93S FOG
$$

NCZ012>017-030>032-211300-
NORTH CENTRAL AND EASTERN NORTH CAROLINA

CITY           SKY/WX    TMP DP  RH WIND       PRES   REMARKS
ROANOKE RAPIDS FOG       46  46 100 CALM      29.94S VSB 1/4
RALEIGH        FOG       51  51 100 E5        29.92S VSB 1/8
ELIZABETH CITY FOG       48  48 100 E3        29.95R VSB 3/4
AHOSKIE*       FOG       46  46  98 CALM      29.94R VSB 1/2
EDENTON*       FOG       49  49 100 CALM      29.95R VSB 1/2
CURRITUCK*     CLOUDY    49  49 100 CALM      29.96R FOG
KILL DEVIL HLS NOT AVBL
MANTEO         FOG       48  48 100 NE3       29.96R VSB 1/2
CAPE HATTERAS  FOG       51  49  92 VRB6      29.94S VSB 1/2
TARBORO*       NOT AVBL
GOLDSBORO      FOG       51  51 100 E3        29.90F VSB 3/4
WASHINGTON     FOG       48  48  99 CALM        N/A  VSB 1
GREENVILLE     CLOUDY    48  48 100 CALM      29.96R FOG
NEW BERN       FOG       49  49 100 E5        29.94S VSB 3/4
WILMINGTON     CLOUDY    53  53 100 CALM      29.91R FOG
$$

VAZ048-211300-
ELSEWHERE

CITY           SKY/WX    TMP DP  RH WIND       PRES   REMARKS
HARRISBURG PA  FOG       39  39 100 CALM      29.89F VSB 1/8
BALTIMORE      DRZL/FOG  46  46 100 CALM      29.91R VSB 3/4
ANNAPOLIS      FOG       44  42  93 CALM      29.92R VSB 1/2
ANDREWS AFB    CLOUDY    46  46 100 CALM      29.90S FOG
PHILADELPHIA   CLOUDY    43  42  97 W5        29.92S FOG
HENDERSON NC   FOG       46  46  99 CALM      29.92R VSB 3/4
GREENSBORO     DRZL/FOG  52  52 100 CALM      29.90S VSB 1/2
ROCKY MOUNT    FOG       48  48 100 CALM      29.94R VSB 3/4
$$

VAZ100-211300-
MARINE

STATION/POSITION TIME  TEMP    WIND        PRES    WAVE   SWELL
                       AIR SEA DIR/SP/G            HT/PER HT/PER
                 (UTC) (F)     (DEG/KT/KT) (MB)    (FT/S) (FT/S)
CAPE MAY NJ      1148   43 41  210/  1/  1 1012.8R
LEWES DE         1142   46 42  210/  1/  2 1013.0F
OCEAN-CITY-INLET 1142   45 42  190/  1/  1 1013.7F
WACHAPREAGUE VA  1148   47 47  110/  1/  2 1013.4R
THOMAS POINT MD  1200   43 39  210/  5/  5   N/A
GOOSES REEF MD   1150   43     190/  4/  6 1013.8R
COVE POINT MD    1148   44     200/  5/  5 1013.9R
SOLOMONS ISLAND  1142   45 41  190/  1/  4   N/A
BISHOPS HEAD MD  1148   43 44  160/  3/  4 1013.7R
PINEY POINT MD   1148          160/  1/  2   N/A
POTOMAC MD       1150   44     220/  2/  2 1012.4R
CAMBRIDGE MD     1148   46 40  200/  3/  4 1012.6R
LEWISETTA VA     1148   46 44  190/  5/  5 1013.0R
RAPPAHANNOCK LGT 1148          150/  5/  5 1013.9S
STINGRAY PT      1150   43     190/  4/  4 1013.8R
YORK RVR RNG VA  1148   45     170/  7/  8 1012.9R
YORKTOWN VA      1148   46 43  180/  4/  6 1013.3R
JAMESTOWN VA     1150   46     160/  6/  8   N/A
DOMINION TERM VA 1148   46     150/  3/  3 1013.9R
KIPTOPEKE VA     1148      44                N/A
CHES BAY BRIDGE  1148   44 45  200/  4/  5 1013.7R
CAPE HENRY VA    1148   46     190/  2/  2   N/A
WILLOUBY STN VA  1148   47     150/  4/  5 1014.6R
S CRANEY ISL VA  1148   47     120/  3/  4 1013.8R
CAPE HENRY BUOY  1142      48                N/A     3/12   2/12
OFFSHORE WE BUOY 1151      49                N/A     3/10   2/11
64NM E OF VA BCH 1150   52 57   30/ 10/ 12 1013.1F   4/11   3/11
DUCK PIER NC     1148   47 45   20/  4/  6 1013.3R
44100 DUCK FRF   1135      48                N/A     3/11   2/11
44056 DUCK FRF   1130      45                N/A     3/13   2/13
OREGON INLET NC  1142   48 48  360/  4/  6 1013.7R
HATTERAS NC      1148   50 55   30/  7/ 12 1013.4F
DIAMOND SHLS NC  1150   58 74   10/ 10/ 14 1013.5R   4/11   3/11
CAPE LOOKOUT NC  1200   52      10/  6/  7 1013.1R
$$




USA.gov is the U.S. government's official web portal to all federal, state and local government web resources and services.